Time,TemperatureF,DewpointF,PressureIn,WindDirection,WindDirectionDegrees,WindSpeedMPH,WindSpeedGustMPH,Humidity,HourlyPrecipIn,Conditions,Clouds,dailyrainin,SolarRadiationWatts/m^2,SoftwareType,DateUTC
2013-04-04 00:00:00,30.6,20.5,30.23,SSW,212,4.6,4.6,66,0.00,CLR,OVC,0.00,0.0,WeatherDisplay:10.37,2013-04-04 05:00:00,
2013-04-04 00:05:00,30.2,20.2,30.23,SW,219,5.8,5.8,66,0.00,CLR,OVC,0.00,0.0,WeatherDisplay:10.37,2013-04-04 05:05:00,
2013-04-04 00:10:00,30.0,20.4,30.23,WSW,239,3.5,3.5,67,0.00,CLR,OVC,0.00,0.0,WeatherDisplay:10.37,2013-04-04 05:10:00,
2013-04-04 00:15:00,29.8,20.2,30.23,SW,220,5.8,5.8,67,0.00,CLR,OVC,0.00,0.0,WeatherDisplay:10.37,2013-04-04 05:15:00,
2013-04-04 00:20:00,29.8,20.2,30.23,SSW,200,5.8,5.8,67,0.00,CLR,OVC,0.00,0.0,WeatherDisplay:10.37,2013-04-04 05:20:00,
2013-04-04 00:25:00,29.8,20.2,30.23,SW,233,8.1,8.1,67,0.00,CLR,OVC,0.00,0.0,WeatherDisplay:10.37,2013-04-04 05:25:00,
2013-04-04 00:30:00,30.0,20.4,30.23,SSW,194,5.8,5.8,67,0.00,CLR,OVC,0.00,0.0,WeatherDisplay:10.37,2013-04-04 05:30:00,
2013-04-04 00:35:00,30.2,20.6,30.23,SSW,206,8.1,8.1,67,0.00,CLR,OVC,0.00,0.0,WeatherDisplay:10.37,2013-04-04 05:35:00,
2013-04-04 00:40:00,30.4,20.7,30.22,SSW,213,5.0,8.0,67,0.00,CLR,OVC,0.00,0.0,WeatherDisplay:10.37,2013-04-04 05:40:00,
2013-04-04 00:45:00,30.4,20.7,30.20,SW,214,8.1,8.1,67,0.00,CLR,OVC,0.00,0.0,WeatherDisplay:10.37,2013-04-04 05:45:00,
2013-04-04 00:50:00,30.6,20.9,30.20,SW,217,5.8,5.8,67,0.00,CLR,OVC,0.00,0.0,WeatherDisplay:10.37,2013-04-04 05:50:00,
2013-04-04 00:55:00,30.6,20.9,30.20,SW,218,6.9,6.9,67,0.00,CLR,OVC,0.00,0.0,WeatherDisplay:10.37,2013-04-04 05:55:00,
2013-04-04 01:00:00,30.4,20.7,30.20,SW,216,5.8,5.8,67,0.00,CLR,OVC,0.00,0.0,WeatherDisplay:10.37,2013-04-04 06:00:00,
2013-04-04 01:05:00,30.4,20.7,30.20,SW,230,9.2,9.2,67,0.00,CLR,OVC,0.00,0.0,WeatherDisplay:10.37,2013-04-04 06:05:00,
2013-04-04 01:10:00,30.2,20.6,30.20,SSW,210,5.8,5.8,67,0.00,CLR,OVC,0.00,0.0,WeatherDisplay:10.37,2013-04-04 06:10:00,
2013-04-04 01:15:00,30.2,20.6,30.20,SW,228,5.8,5.8,67,0.00,CLR,OVC,0.00,0.0,WeatherDisplay:10.37,2013-04-04 06:15:00,
2013-04-04 01:20:00,30.2,20.6,30.20,SSW,198,5.4,5.4,67,0.00,CLR,OVC,0.00,0.0,WeatherDisplay:10.37,2013-04-04 06:20:00,
2013-04-04 01:25:00,29.8,20.2,30.20,SW,221,6.3,6.3,67,0.00,CLR,OVC,0.00,0.0,WeatherDisplay:10.37,2013-04-04 06:25:00,
2013-04-04 01:30:00,29.8,20.2,30.20,SW,214,5.8,5.8,67,0.00,CLR,OVC,0.00,0.0,WeatherDisplay:10.37,2013-04-04 06:30:00,
2013-04-04 01:35:00,29.7,20.4,30.20,SSW,207,5.8,5.8,68,0.00,CLR,OVC,0.00,0.0,WeatherDisplay:10.37,2013-04-04 06:35:00,
2013-04-04 01:40:00,29.5,20.2,30.20,SSW,207,8.1,8.1,68,0.00,CLR,OVC,0.00,0.0,WeatherDisplay:10.37,2013-04-04 06:40:00,
2013-04-04 01:45:00,29.5,20.2,30.20,SW,234,5.8,5.8,68,0.00,CLR,OVC,0.00,0.0,WeatherDisplay:10.37,2013-04-04 06:45:00,
2013-04-04 01:50:00,29.7,20.4,30.20,SSW,213,8.1,8.1,68,0.00,CLR,OVC,0.00,0.0,WeatherDisplay:10.37,2013-04-04 06:50:00,
2013-04-04 01:55:00,29.7,20.4,30.17,SW,222,5.8,5.8,68,0.00,CLR,OVC,0.00,0.0,WeatherDisplay:10.37,2013-04-04 06:55:00,
2013-04-04 02:00:00,29.8,20.6,30.17,SW,219,8.1,8.1,68,0.00,CLR,OVC,0.00,0.0,WeatherDisplay:10.37,2013-04-04 07:00:00,
2013-04-04 02:05:00,30.0,20.7,30.17,SW,224,5.8,5.8,68,0.00,CLR,OVC,0.00,0.0,WeatherDisplay:10.37,2013-04-04 07:05:00,
2013-04-04 02:10:00,30.0,20.7,30.17,SW,219,5.8,5.8,68,0.00,CLR,OVC,0.00,0.0,WeatherDisplay:10.37,2013-04-04 07:10:00,
2013-04-04 02:15:00,30.0,20.4,30.17,SSW,200,8.1,8.1,67,0.00,CLR,OVC,0.00,0.0,WeatherDisplay:10.37,2013-04-04 07:15:00,
2013-04-04 02:20:00,30.2,20.6,30.17,SW,232,5.8,5.8,67,0.00,CLR,OVC,0.00,0.0,WeatherDisplay:10.37,2013-04-04 07:20:00,
2013-04-04 02:26:00,30.0,20.4,30.17,SSW,203,5.8,5.8,67,0.00,CLR,OVC,0.00,0.0,WeatherDisplay:10.37,2013-04-04 07:26:00,
2013-04-04 02:31:00,30.0,20.7,30.17,SW,216,5.8,5.8,68,0.00,CLR,OVC,0.00,0.0,WeatherDisplay:10.37,2013-04-04 07:31:00,
2013-04-04 02:36:00,30.0,20.7,30.17,South,188,5.8,5.8,68,0.00,CLR,OVC,0.00,0.0,WeatherDisplay:10.37,2013-04-04 07:36:00,
2013-04-04 02:40:00,29.8,20.6,30.17,SSW,211,5.8,5.8,68,0.00,CLR,OVC,0.00,0.0,WeatherDisplay:10.37,2013-04-04 07:40:00,
2013-04-04 02:45:00,29.8,20.6,30.17,SW,227,5.8,5.8,68,0.00,CLR,OVC,0.00,0.0,WeatherDisplay:10.37,2013-04-04 07:45:00,
2013-04-04 02:51:00,29.8,20.6,30.17,SW,229,5.8,5.8,68,0.00,CLR,OVC,0.00,0.0,WeatherDisplay:10.37,2013-04-04 07:51:00,
2013-04-04 02:56:00,29.8,20.6,30.14,SW,225,5.8,5.8,68,0.00,CLR,OVC,0.00,0.0,WeatherDisplay:10.37,2013-04-04 07:56:00,
2013-04-04 03:01:00,29.7,20.4,30.14,SW,225,5.8,5.8,68,0.00,CLR,OVC,0.00,0.0,WeatherDisplay:10.37,2013-04-04 08:01:00,
2013-04-04 03:06:00,29.7,20.4,30.14,SSW,210,5.8,5.8,68,0.00,CLR,OVC,0.00,0.0,WeatherDisplay:10.37,2013-04-04 08:06:00,
2013-04-04 03:11:00,29.7,20.4,30.14,South,178,5.8,5.8,68,0.00,CLR,OVC,0.00,0.0,WeatherDisplay:10.37,2013-04-04 08:11:00,
2013-04-04 03:16:00,29.7,20.4,30.14,SW,224,5.8,5.8,68,0.00,CLR,OVC,0.00,0.0,WeatherDisplay:10.37,2013-04-04 08:16:00,
2013-04-04 03:20:00,29.5,20.2,30.14,SW,224,5.8,5.8,68,0.00,CLR,OVC,0.00,0.0,WeatherDisplay:10.37,2013-04-04 08:20:00,
2013-04-04 03:25:00,29.5,20.2,30.14,SW,214,5.8,5.8,68,0.00,CLR,OVC,0.00,0.0,WeatherDisplay:10.37,2013-04-04 08:25:00,
2013-04-04 03:30:00,29.5,20.2,30.14,SSW,208,5.8,5.8,68,0.00,CLR,OVC,0.00,0.0,WeatherDisplay:10.37,2013-04-04 08:30:00,
2013-04-04 03:35:00,29.5,20.2,30.14,SW,226,8.1,8.1,68,0.00,CLR,OVC,0.00,0.0,WeatherDisplay:10.37,2013-04-04 08:35:00,
2013-04-04 03:40:00,29.5,20.2,30.14,WSW,248,5.8,5.8,68,0.00,CLR,OVC,0.00,0.0,WeatherDisplay:10.37,2013-04-04 08:40:00,
2013-04-04 03:45:00,29.3,20.0,30.14,SSW,210,6.9,6.9,68,0.00,CLR,OVC,0.00,0.0,WeatherDisplay:10.37,2013-04-04 08:45:00,
2013-04-04 03:50:00,29.3,20.0,30.14,SSW,197,5.8,5.8,68,0.00,CLR,OVC,0.00,0.0,WeatherDisplay:10.37,2013-04-04 08:50:00,
2013-04-04 03:55:00,29.3,20.0,30.14,SW,235,5.8,5.8,68,0.00,CLR,OVC,0.00,0.0,WeatherDisplay:10.37,2013-04-04 08:55:00,
2013-04-04 04:00:00,29.1,19.9,30.14,SW,216,5.8,5.8,68,0.00,CLR,OVC,0.00,0.0,WeatherDisplay:10.37,2013-04-04 09:00:00,
2013-04-04 04:05:00,29.1,19.9,30.14,SW,218,4.6,4.6,68,0.00,CLR,OVC,0.00,0.0,WeatherDisplay:10.37,2013-04-04 09:05:00,
2013-04-04 04:10:00,28.9,19.7,30.14,SW,232,5.8,5.8,68,0.00,CLR,OVC,0.00,0.0,WeatherDisplay:10.37,2013-04-04 09:10:00,
2013-04-04 04:15:00,29.1,19.9,30.14,SSW,210,9.2,9.2,68,0.00,CLR,OVC,0.00,0.0,WeatherDisplay:10.37,2013-04-04 09:15:00,
2013-04-04 04:20:00,29.3,20.0,30.14,SSW,212,8.1,8.1,68,0.00,CLR,OVC,0.00,0.0,WeatherDisplay:10.37,2013-04-04 09:20:00,
2013-04-04 04:25:00,29.3,20.0,30.14,South,190,6.9,6.9,68,0.00,CLR,OVC,0.00,0.0,WeatherDisplay:10.37,2013-04-04 09:25:00,
2013-04-04 04:30:00,29.5,20.2,30.14,WSW,238,5.8,5.8,68,0.00,CLR,OVC,0.00,0.0,WeatherDisplay:10.37,2013-04-04 09:30:00,
2013-04-04 04:35:00,29.3,20.0,30.14,SSW,192,5.8,5.8,68,0.00,CLR,OVC,0.00,0.0,WeatherDisplay:10.37,2013-04-04 09:35:00,
2013-04-04 04:40:00,29.1,19.9,30.14,SW,215,5.8,5.8,68,0.00,CLR,OVC,0.00,0.0,WeatherDisplay:10.37,2013-04-04 09:40:00,
2013-04-04 04:45:00,28.9,19.7,30.14,SSW,205,5.8,5.8,68,0.00,CLR,OVC,0.00,0.0,WeatherDisplay:10.37,2013-04-04 09:45:00,
2013-04-04 04:50:00,28.9,20.0,30.14,SW,218,5.8,5.8,69,0.00,CLR,OVC,0.00,0.0,WeatherDisplay:10.37,2013-04-04 09:50:00,
2013-04-04 04:55:00,28.9,20.0,30.11,WSW,238,5.8,5.8,69,0.00,CLR,OVC,0.00,0.0,WeatherDisplay:10.37,2013-04-04 09:55:00,
2013-04-04 05:00:00,28.9,20.0,30.11,SW,223,5.8,5.8,69,0.00,CLR,OVC,0.00,0.0,WeatherDisplay:10.37,2013-04-04 10:00:00,
2013-04-04 05:05:00,29.1,20.2,30.11,SSW,202,5.8,5.8,69,0.00,CLR,OVC,0.00,0.0,WeatherDisplay:10.37,2013-04-04 10:05:00,
2013-04-04 05:10:00,29.1,20.2,30.11,SW,216,5.8,5.8,69,0.00,CLR,OVC,0.00,0.0,WeatherDisplay:10.37,2013-04-04 10:10:00,
2013-04-04 05:15:00,29.1,20.2,30.11,SW,236,5.8,5.8,69,0.00,CLR,OVC,0.00,0.0,WeatherDisplay:10.37,2013-04-04 10:15:00,
2013-04-04 05:20:00,29.3,20.4,30.11,SW,219,8.1,8.1,69,0.00,CLR,OVC,0.00,0.0,WeatherDisplay:10.37,2013-04-04 10:20:00,
2013-04-04 05:25:00,29.5,20.6,30.11,South,175,6.9,6.9,69,0.00,CLR,OVC,0.00,0.0,WeatherDisplay:10.37,2013-04-04 10:25:00,
2013-04-04 05:30:00,29.5,20.2,30.11,SW,229,8.1,8.1,68,0.00,CLR,OVC,0.00,0.0,WeatherDisplay:10.37,2013-04-04 10:30:00,
2013-04-04 05:35:00,29.5,20.2,30.11,SW,215,9.2,9.2,68,0.00,CLR,OVC,0.00,0.0,WeatherDisplay:10.37,2013-04-04 10:35:00,
2013-04-04 05:40:00,29.5,20.2,30.11,SW,217,5.8,5.8,68,0.00,CLR,OVC,0.00,0.0,WeatherDisplay:10.37,2013-04-04 10:40:00,
2013-04-04 05:45:00,29.5,20.2,30.11,SSW,211,6.3,6.3,68,0.00,CLR,OVC,0.00,0.0,WeatherDisplay:10.37,2013-04-04 10:45:00,
2013-04-04 05:50:00,29.7,20.4,30.11,South,182,8.1,8.1,68,0.00,CLR,OVC,0.00,0.0,WeatherDisplay:10.37,2013-04-04 10:50:00,
2013-04-04 05:55:00,29.8,20.6,30.11,SW,215,8.1,8.1,68,0.00,CLR,OVC,0.00,0.0,WeatherDisplay:10.37,2013-04-04 10:55:00,
2013-04-04 06:00:00,30.0,20.7,30.11,SW,229,5.8,5.8,68,0.00,CLR,OVC,0.00,0.0,WeatherDisplay:10.37,2013-04-04 11:00:00,
2013-04-04 06:06:00,30.0,20.7,30.11,SSW,211,5.8,5.8,68,0.00,CLR,OVC,0.00,0.6,WeatherDisplay:10.37,2013-04-04 11:06:00,
2013-04-04 06:11:00,30.0,20.7,30.11,South,176,5.8,5.8,68,0.00,CLR,OVC,0.00,0.7,WeatherDisplay:10.37,2013-04-04 11:11:00,
2013-04-04 06:16:00,30.0,20.7,30.11,SSW,193,5.8,5.8,68,0.00,CLR,OVC,0.00,0.9,WeatherDisplay:10.37,2013-04-04 11:16:00,
2013-04-04 06:21:00,30.2,20.9,30.11,SW,218,5.8,5.8,68,0.00,CLR,OVC,0.00,0.9,WeatherDisplay:10.37,2013-04-04 11:21:00,
2013-04-04 06:26:00,30.2,20.6,30.08,SSW,198,5.8,5.8,67,0.00,CLR,OVC,0.00,1.1,WeatherDisplay:10.37,2013-04-04 11:26:00,
2013-04-04 06:31:00,30.2,20.6,30.08,SSW,209,5.8,5.8,67,0.00,CLR,OVC,0.00,1.2,WeatherDisplay:10.37,2013-04-04 11:31:00,
2013-04-04 06:37:00,30.2,20.6,30.08,SSW,210,8.1,8.1,67,0.00,CLR,OVC,0.00,1.4,WeatherDisplay:10.37,2013-04-04 11:37:00,
2013-04-04 06:42:00,30.2,20.6,30.08,SW,224,5.8,5.8,67,0.00,CLR,OVC,0.00,1.5,WeatherDisplay:10.37,2013-04-04 11:42:00,
2013-04-04 06:47:00,30.4,20.7,30.08,SSW,197,6.9,6.9,67,0.00,CLR,OVC,0.00,1.5,WeatherDisplay:10.37,2013-04-04 11:47:00,
2013-04-04 06:52:00,30.4,20.7,30.08,SSW,205,8.1,8.1,67,0.00,CLR,OVC,0.00,1.6,WeatherDisplay:10.37,2013-04-04 11:52:00,
2013-04-04 06:57:00,30.7,21.1,30.08,SSW,198,5.8,5.8,67,0.00,CLR,OVC,0.00,1.6,WeatherDisplay:10.37,2013-04-04 11:57:00,
2013-04-04 07:02:00,30.9,21.2,30.08,SW,232,5.8,5.8,67,0.00,CLR,OVC,0.00,1.3,WeatherDisplay:10.37,2013-04-04 12:02:00,
2013-04-04 07:07:00,31.1,21.4,30.08,SSW,204,6.9,6.9,67,0.00,CLR,OVC,0.00,1.1,WeatherDisplay:10.37,2013-04-04 12:07:00,
2013-04-04 07:12:00,31.3,21.2,30.08,SW,214,5.8,5.8,66,0.00,CLR,OVC,0.00,1.0,WeatherDisplay:10.37,2013-04-04 12:12:00,
2013-04-04 07:17:00,31.6,21.6,30.08,SW,234,5.8,5.8,66,0.00,CLR,OVC,0.00,0.5,WeatherDisplay:10.37,2013-04-04 12:17:00,
2013-04-04 07:22:00,32.2,22.1,30.08,SW,215,8.1,8.1,66,0.00,CLR,OVC,0.00,0.0,WeatherDisplay:10.37,2013-04-04 12:22:00,
2013-04-04 07:27:00,32.5,22.4,30.08,SW,233,8.1,8.1,66,0.00,CLR,OVC,0.00,0.0,WeatherDisplay:10.37,2013-04-04 12:27:00,
2013-04-04 07:32:00,32.9,22.8,30.08,WSW,237,5.8,5.8,66,0.00,CLR,OVC,0.00,0.0,WeatherDisplay:10.37,2013-04-04 12:32:00,
2013-04-04 07:37:00,33.3,23.1,30.08,SSW,203,5.8,5.8,66,0.00,CLR,OVC,0.00,0.0,WeatherDisplay:10.37,2013-04-04 12:37:00,
2013-04-04 07:42:00,33.8,23.3,30.08,SW,223,8.1,8.1,65,0.00,CLR,OVC,0.00,0.0,WeatherDisplay:10.37,2013-04-04 12:42:00,
2013-04-04 07:47:00,34.2,23.6,30.08,SSW,197,8.1,8.1,65,0.00,CLR,OVC,0.00,0.0,WeatherDisplay:10.37,2013-04-04 12:47:00,
2013-04-04 07:52:00,34.5,24.0,30.08,SW,219,8.1,8.1,65,0.00,CLR,OVC,0.00,0.0,WeatherDisplay:10.37,2013-04-04 12:52:00,
2013-04-04 07:57:00,34.9,24.3,30.05,WSW,237,8.1,8.1,65,0.00,CLR,OVC,0.00,0.0,WeatherDisplay:10.37,2013-04-04 12:57:00,
2013-04-04 08:02:00,35.2,24.3,30.05,SW,234,9.2,9.2,64,0.00,CLR,OVC,0.00,0.0,WeatherDisplay:10.37,2013-04-04 13:02:00,
2013-04-04 08:07:00,35.4,24.1,30.05,SW,229,8.1,8.1,63,0.00,CLR,OVC,0.00,0.0,WeatherDisplay:10.37,2013-04-04 13:07:00,
2013-04-04 08:12:00,35.6,24.2,30.05,WSW,241,8.1,8.1,63,0.00,CLR,OVC,0.00,0.0,WeatherDisplay:10.37,2013-04-04 13:12:00,
2013-04-04 08:17:00,36.0,24.2,30.05,SSW,197,8.7,8.7,62,0.00,CLR,OVC,0.00,0.0,WeatherDisplay:10.37,2013-04-04 13:17:00,
2013-04-04 08:22:00,36.3,24.5,30.05,SSW,208,8.1,8.1,62,0.00,CLR,OVC,0.00,0.0,WeatherDisplay:10.37,2013-04-04 13:22:00,
2013-04-04 08:27:00,36.5,24.7,30.05,SW,232,5.8,5.8,62,0.00,CLR,OVC,0.00,0.0,WeatherDisplay:10.37,2013-04-04 13:27:00,
2013-04-04 08:32:00,36.7,24.9,30.05,SW,233,9.2,9.2,62,0.00,CLR,OVC,0.00,0.0,WeatherDisplay:10.37,2013-04-04 13:32:00,
2013-04-04 08:37:00,37.2,25.8,30.05,SSW,203,10.4,10.4,63,0.00,CLR,OVC,0.00,0.0,WeatherDisplay:10.37,2013-04-04 13:37:00,
2013-04-04 08:42:00,37.8,25.5,30.05,WSW,239,9.2,9.2,61,0.00,CLR,OVC,0.00,0.0,WeatherDisplay:10.37,2013-04-04 13:42:00,
2013-04-04 08:47:00,38.3,26.0,30.05,SSW,208,8.1,8.1,61,0.00,CLR,OVC,0.00,0.0,WeatherDisplay:10.37,2013-04-04 13:47:00,
2013-04-04 08:52:00,38.7,26.4,30.05,SSW,205,10.4,10.4,61,0.00,CLR,OVC,0.00,0.0,WeatherDisplay:10.37,2013-04-04 13:52:00,
2013-04-04 08:57:00,38.8,26.1,30.05,SW,224,10.4,10.4,60,0.00,CLR,OVC,0.00,0.0,WeatherDisplay:10.37,2013-04-04 13:57:00,
2013-04-04 09:02:00,39.0,26.3,30.05,SW,216,9.2,9.2,60,0.00,CLR,OVC,0.00,0.0,WeatherDisplay:10.37,2013-04-04 14:02:00,
2013-04-04 09:07:00,39.2,26.1,30.05,WSW,240,10.4,10.4,59,0.00,CLR,OVC,0.00,0.0,WeatherDisplay:10.37,2013-04-04 14:07:00,
2013-04-04 09:12:00,39.4,26.2,30.05,SW,226,9.2,9.2,59,0.00,CLR,OVC,0.00,0.0,WeatherDisplay:10.37,2013-04-04 14:12:00,
2013-04-04 09:17:00,39.7,26.6,30.05,SW,223,8.1,8.1,59,0.00,CLR,OVC,0.00,0.0,WeatherDisplay:10.37,2013-04-04 14:17:00,
2013-04-04 09:22:00,40.3,27.1,30.05,SW,230,8.1,8.1,59,0.00,CLR,OVC,0.00,0.0,WeatherDisplay:10.37,2013-04-04 14:22:00,
2013-04-04 09:28:00,40.3,26.7,30.02,SW,224,11.5,11.5,58,0.00,CLR,OVC,0.00,0.0,WeatherDisplay:10.37,2013-04-04 14:28:00,
2013-04-04 09:33:00,40.3,26.7,30.02,SW,214,10.4,10.4,58,0.00,CLR,OVC,0.00,0.0,WeatherDisplay:10.37,2013-04-04 14:33:00,
2013-04-04 09:38:00,40.6,27.0,30.02,SW,220,5.8,7.2,58,0.00,CLR,OVC,0.00,0.0,WeatherDisplay:10.37,2013-04-04 14:38:00,
2013-04-04 09:43:00,41.5,27.8,30.02,WSW,241,6.9,6.9,58,0.00,CLR,OVC,0.00,0.0,WeatherDisplay:10.37,2013-04-04 14:43:00,
2013-04-04 09:48:00,42.4,28.7,30.02,WSW,251,10.4,10.4,58,0.00,CLR,OVC,0.00,0.0,WeatherDisplay:10.37,2013-04-04 14:48:00,
2013-04-04 09:53:00,42.8,28.6,30.02,SW,218,8.1,8.1,57,0.00,CLR,OVC,0.00,0.0,WeatherDisplay:10.37,2013-04-04 14:53:00,
2013-04-04 09:58:00,43.0,28.8,30.02,WNW,284,6.9,6.9,57,0.00,CLR,OVC,0.00,0.0,WeatherDisplay:10.37,2013-04-04 14:58:00,
2013-04-04 10:03:00,43.7,29.5,30.02,WSW,238,8.1,8.1,57,0.00,BKN,OVC,0.00,0.0,WeatherDisplay:10.37,2013-04-04 15:03:00,
2013-04-04 10:08:00,43.7,29.0,30.02,West,261,5.8,5.8,56,0.00,BKN,OVC,0.00,0.0,WeatherDisplay:10.37,2013-04-04 15:08:00,
2013-04-04 10:13:00,43.7,29.0,30.02,SW,214,8.1,8.1,56,0.00,BKN,OVC,0.00,0.0,WeatherDisplay:10.37,2013-04-04 15:13:00,
2013-04-04 10:18:00,44.6,29.9,30.02,SW,233,8.1,8.1,56,0.00,BKN,OVC,0.00,0.0,WeatherDisplay:10.37,2013-04-04 15:18:00,
2013-04-04 10:23:00,45.3,30.1,30.02,WSW,247,8.1,8.1,55,0.00,BKN,OVC,0.00,0.0,WeatherDisplay:10.37,2013-04-04 15:23:00,
2013-04-04 10:28:00,46.0,30.8,30.02,SW,231,10.4,10.4,55,0.00,BKN,OVC,0.00,0.0,WeatherDisplay:10.37,2013-04-04 15:28:00,
2013-04-04 10:33:00,46.2,30.9,30.02,SSW,198,5.8,5.8,55,0.00,BKN,OVC,0.00,0.0,WeatherDisplay:10.37,2013-04-04 15:33:00,
2013-04-04 10:38:00,45.9,30.6,30.02,SW,215,8.1,8.1,55,0.00,BKN,OVC,0.00,0.0,WeatherDisplay:10.37,2013-04-04 15:38:00,
2013-04-04 10:43:00,44.8,29.6,30.02,SW,232,8.1,8.1,55,0.00,BKN,OVC,0.00,0.0,WeatherDisplay:10.37,2013-04-04 15:43:00,
2013-04-04 10:49:00,44.1,28.9,30.02,WSW,251,5.8,5.8,55,0.00,BKN,OVC,0.00,0.0,WeatherDisplay:10.37,2013-04-04 15:49:00,
2013-04-04 10:54:00,44.1,28.9,30.02,SW,230,5.8,5.8,55,0.00,BKN,OVC,0.00,0.0,WeatherDisplay:10.37,2013-04-04 15:54:00,
2013-04-04 10:59:00,44.4,29.2,30.02,SSW,210,8.1,8.1,55,0.00,BKN,OVC,0.00,0.0,WeatherDisplay:10.37,2013-04-04 15:59:00,
2013-04-04 11:04:00,45.3,30.1,30.02,WSW,249,6.9,6.9,55,0.00,BKN,OVC,0.00,0.0,WeatherDisplay:10.37,2013-04-04 16:04:00,
2013-04-04 11:09:00,46.4,30.6,30.02,WSW,248,5.8,5.8,54,0.00,BKN,OVC,0.00,0.0,WeatherDisplay:10.37,2013-04-04 16:09:00,
2013-04-04 11:14:00,46.6,30.8,30.02,SSW,197,5.8,5.8,54,0.00,BKN,OVC,0.00,0.0,WeatherDisplay:10.37,2013-04-04 16:14:00,
2013-04-04 11:20:00,46.2,30.9,30.02,WSW,241,8.1,8.1,55,0.00,BKN,OVC,0.00,0.0,WeatherDisplay:10.37,2013-04-04 16:20:00,
2013-04-04 11:25:00,45.3,30.1,30.02,WSW,241,3.5,3.5,55,0.00,BKN,OVC,0.00,0.0,WeatherDisplay:10.37,2013-04-04 16:25:00,
2013-04-04 11:30:00,44.8,30.0,30.02,West,267,3.5,3.5,56,0.00,BKN,OVC,0.00,0.0,WeatherDisplay:10.37,2013-04-04 16:30:00,
2013-04-04 11:35:00,44.6,30.7,30.02,WSW,252,3.5,3.6,58,0.00,BKN,OVC,0.00,0.0,WeatherDisplay:10.37,2013-04-04 16:35:00,
2013-04-04 11:40:00,44.6,31.1,30.02,West,261,3.5,3.6,59,0.00,BKN,OVC,0.00,0.0,WeatherDisplay:10.37,2013-04-04 16:40:00,
2013-04-04 11:45:00,44.1,32.3,30.02,West,277,3.5,3.5,63,0.00,BKN,OVC,0.00,0.0,WeatherDisplay:10.37,2013-04-04 16:45:00,
2013-04-04 11:50:00,43.3,31.6,30.02,WSW,247,4.6,4.6,63,0.00,BKN,OVC,0.00,0.0,WeatherDisplay:10.37,2013-04-04 16:50:00,
2013-04-04 11:55:00,42.8,31.5,30.02,WSW,254,4.6,4.6,64,0.00,BKN,OVC,0.00,0.0,WeatherDisplay:10.37,2013-04-04 16:55:00,
2013-04-04 12:01:00,42.3,32.1,30.02,West,274,3.5,3.5,67,0.00,BKN,OVC,0.00,0.0,WeatherDisplay:10.37,2013-04-04 17:01:00,
2013-04-04 12:06:00,41.4,31.9,30.02,SW,221,5.8,5.8,69,0.00,OVC,,0.00,0.0,WeatherDisplay:10.37,2013-04-04 17:06:00,
2013-04-04 12:11:00,40.6,32.0,30.02,SW,227,8.1,8.1,71,0.00,OVC,,0.00,0.0,WeatherDisplay:10.37,2013-04-04 17:11:00,
2013-04-04 12:16:00,40.5,32.8,30.02,WNW,297,5.8,5.8,74,0.00,OVC,,0.00,0.0,WeatherDisplay:10.37,2013-04-04 17:16:00,
2013-04-04 12:21:00,40.6,33.0,30.02,WNW,295,3.5,3.6,74,0.00,OVC,,0.00,0.0,WeatherDisplay:10.37,2013-04-04 17:21:00,
2013-04-04 12:26:00,41.0,32.7,30.02,SW,221,8.3,8.3,72,0.00,OVC,,0.00,0.0,WeatherDisplay:10.37,2013-04-04 17:26:00,
2013-04-04 12:31:00,41.5,32.5,30.02,WSW,239,4.6,4.6,70,0.00,OVC,,0.00,0.0,WeatherDisplay:10.37,2013-04-04 17:31:00,
2013-04-04 12:36:00,41.7,31.6,30.02,WSW,248,8.1,8.1,67,0.00,OVC,,0.00,0.0,WeatherDisplay:10.37,2013-04-04 17:36:00,
2013-04-04 12:41:00,42.1,31.5,30.02,South,175,4.6,4.6,66,0.00,OVC,,0.00,0.0,WeatherDisplay:10.37,2013-04-04 17:41:00,
2013-04-04 12:46:00,42.4,32.3,30.02,WSW,254,3.5,3.5,67,0.00,OVC,,0.00,0.0,WeatherDisplay:10.37,2013-04-04 17:46:00,
2013-04-04 12:51:00,43.0,32.0,30.02,WNW,297,4.6,4.6,65,0.00,OVC,,0.00,0.0,WeatherDisplay:10.37,2013-04-04 17:51:00,
2013-04-04 12:56:00,43.7,32.3,30.02,WNW,301,5.8,5.8,64,0.00,OVC,,0.00,0.0,WeatherDisplay:10.37,2013-04-04 17:56:00,
2013-04-04 13:01:00,43.9,32.5,30.02,West,281,5.8,5.8,64,0.00,BKN,OVC,0.00,0.0,WeatherDisplay:10.37,2013-04-04 18:01:00,
2013-04-04 13:06:00,43.7,32.3,30.02,SW,224,5.8,5.8,64,0.00,BKN,OVC,0.00,0.0,WeatherDisplay:10.37,2013-04-04 18:06:00,
2013-04-04 13:12:00,43.9,32.1,29.99,NW,309,5.8,5.8,63,0.00,BKN,OVC,0.00,0.0,WeatherDisplay:10.37,2013-04-04 18:12:00,
2013-04-04 13:17:00,44.4,32.6,29.99,NW,304,5.8,5.8,63,0.00,BKN,OVC,0.00,0.0,WeatherDisplay:10.37,2013-04-04 18:17:00,
2013-04-04 13:22:00,45.1,32.9,29.99,West,263,5.8,5.8,62,0.00,BKN,OVC,0.00,0.0,WeatherDisplay:10.37,2013-04-04 18:22:00,
2013-04-04 13:27:00,45.3,33.1,29.99,WNW,289,5.8,5.8,62,0.00,BKN,OVC,0.00,0.0,WeatherDisplay:10.37,2013-04-04 18:27:00,
2013-04-04 13:32:00,45.7,33.4,29.99,WNW,293,8.1,8.1,62,0.00,BKN,OVC,0.00,0.0,WeatherDisplay:10.37,2013-04-04 18:32:00,
2013-04-04 13:37:00,45.7,33.4,29.99,NW,313,5.8,5.8,62,0.00,BKN,OVC,0.00,0.0,WeatherDisplay:10.37,2013-04-04 18:37:00,
2013-04-04 13:42:00,45.9,34.0,29.99,WSW,250,9.2,9.2,63,0.00,BKN,OVC,0.00,0.0,WeatherDisplay:10.37,2013-04-04 18:42:00,
2013-04-04 13:47:00,46.4,33.7,29.99,SSW,211,5.8,5.8,61,0.00,BKN,OVC,0.00,0.0,WeatherDisplay:10.37,2013-04-04 18:47:00,
2013-04-04 13:52:00,46.8,34.0,29.99,SSW,213,4.0,4.0,61,0.00,BKN,OVC,0.00,0.0,WeatherDisplay:10.37,2013-04-04 18:52:00,
2013-04-04 13:57:00,46.9,34.2,29.99,West,276,8.1,8.1,61,0.00,BKN,OVC,0.00,0.0,WeatherDisplay:10.37,2013-04-04 18:57:00,
2013-04-04 14:02:00,46.9,33.8,29.99,West,261,5.8,5.8,60,0.00,CLR,OVC,0.00,0.0,WeatherDisplay:10.37,2013-04-04 19:02:00,
2013-04-04 14:07:00,46.9,33.8,29.99,West,265,6.7,6.7,60,0.00,CLR,OVC,0.00,0.0,WeatherDisplay:10.37,2013-04-04 19:07:00,
2013-04-04 14:12:00,47.3,33.7,29.99,NW,306,8.1,8.1,59,0.00,CLR,OVC,0.00,0.0,WeatherDisplay:10.37,2013-04-04 19:12:00,
2013-04-04 14:17:00,47.3,33.7,29.99,NW,312,8.1,8.1,59,0.00,CLR,OVC,0.00,0.0,WeatherDisplay:10.37,2013-04-04 19:17:00,
2013-04-04 14:22:00,47.7,34.0,29.99,WSW,255,5.8,5.8,59,0.00,CLR,OVC,0.00,0.0,WeatherDisplay:10.37,2013-04-04 19:22:00,
2013-04-04 14:27:00,48.0,34.4,29.99,SW,222,5.8,5.8,59,0.00,CLR,OVC,0.00,0.0,WeatherDisplay:10.37,2013-04-04 19:27:00,
2013-04-04 14:32:00,48.2,34.1,29.99,WNW,289,5.8,5.8,58,0.00,CLR,OVC,0.00,0.0,WeatherDisplay:10.37,2013-04-04 19:32:00,
2013-04-04 14:37:00,48.4,34.3,29.99,WNW,284,5.8,5.8,58,0.00,CLR,OVC,0.00,0.0,WeatherDisplay:10.37,2013-04-04 19:37:00,
2013-04-04 14:42:00,48.4,34.3,29.99,WSW,237,3.5,4.5,58,0.00,CLR,OVC,0.00,0.0,WeatherDisplay:10.37,2013-04-04 19:42:00,
2013-04-04 14:48:00,48.7,34.2,29.99,WSW,257,5.8,5.8,57,0.00,CLR,OVC,0.00,0.0,WeatherDisplay:10.37,2013-04-04 19:48:00,
2013-04-04 14:53:00,48.7,33.7,29.99,NW,326,4.6,4.6,56,0.00,CLR,OVC,0.00,0.0,WeatherDisplay:10.37,2013-04-04 19:53:00,
2013-04-04 14:58:00,48.6,33.6,29.99,WSW,239,5.8,5.8,56,0.00,CLR,OVC,0.00,0.0,WeatherDisplay:10.37,2013-04-04 19:58:00,
2013-04-04 15:03:00,47.8,32.9,29.99,WSW,245,5.8,5.8,56,0.00,CLR,OVC,0.00,0.0,WeatherDisplay:10.37,2013-04-04 20:03:00,
2013-04-04 15:07:00,47.3,32.8,29.99,West,281,3.5,3.5,57,0.00,CLR,OVC,0.00,0.0,WeatherDisplay:10.37,2013-04-04 20:07:00,
2013-04-04 15:12:00,47.3,32.8,29.99,West,263,4.6,4.6,57,0.00,CLR,OVC,0.00,0.0,WeatherDisplay:10.37,2013-04-04 20:12:00,
2013-04-04 15:17:00,47.3,32.8,29.99,West,271,6.9,6.9,57,0.00,CLR,OVC,0.00,0.0,WeatherDisplay:10.37,2013-04-04 20:17:00,
2013-04-04 15:22:00,47.3,32.8,29.99,WNW,303,5.8,5.8,57,0.00,CLR,OVC,0.00,0.0,WeatherDisplay:10.37,2013-04-04 20:22:00,
2013-04-04 15:27:00,47.3,33.3,29.99,NNW,327,3.5,3.6,58,0.00,CLR,OVC,0.00,0.0,WeatherDisplay:10.37,2013-04-04 20:27:00,
2013-04-04 15:32:00,47.3,32.8,29.99,WNW,287,3.5,3.6,57,0.00,CLR,OVC,0.00,0.0,WeatherDisplay:10.37,2013-04-04 20:32:00,
2013-04-04 15:37:00,47.5,33.0,29.99,NW,306,4.6,4.6,57,0.00,CLR,OVC,0.00,0.0,WeatherDisplay:10.37,2013-04-04 20:37:00,
2013-04-04 15:42:00,47.1,32.7,29.96,NNW,339,5.8,5.8,57,0.00,CLR,OVC,0.00,0.0,WeatherDisplay:10.37,2013-04-04 20:42:00,
2013-04-04 15:47:00,47.3,33.3,29.96,NW,317,5.8,5.8,58,0.00,CLR,OVC,0.00,0.0,WeatherDisplay:10.37,2013-04-04 20:47:00,
2013-04-04 15:52:00,47.3,32.8,29.96,West,271,8.7,8.7,57,0.00,CLR,OVC,0.00,0.0,WeatherDisplay:10.37,2013-04-04 20:52:00,
2013-04-04 15:57:00,47.3,32.8,29.96,NNW,328,4.0,4.0,57,0.00,CLR,OVC,0.00,0.0,WeatherDisplay:10.37,2013-04-04 20:57:00,
2013-04-04 16:02:00,47.5,33.4,29.96,NW,308,3.5,3.5,58,0.00,CLR,OVC,0.00,0.0,WeatherDisplay:10.37,2013-04-04 21:02:00,
2013-04-04 16:07:00,47.7,33.2,29.96,NW,323,4.6,4.6,57,0.00,CLR,OVC,0.00,0.0,WeatherDisplay:10.37,2013-04-04 21:07:00,
2013-04-04 16:12:00,47.8,32.9,29.96,NW,311,4.6,4.6,56,0.00,CLR,OVC,0.00,0.0,WeatherDisplay:10.37,2013-04-04 21:12:00,
2013-04-04 16:17:00,48.0,33.1,29.96,WNW,295,5.8,5.8,56,0.00,CLR,OVC,0.00,0.0,WeatherDisplay:10.37,2013-04-04 21:17:00,
2013-04-04 16:22:00,48.2,33.2,29.96,West,267,3.5,3.5,56,0.00,CLR,OVC,0.00,0.0,WeatherDisplay:10.37,2013-04-04 21:22:00,
2013-04-04 16:27:00,48.2,32.8,29.99,NNW,345,5.8,5.8,55,0.00,CLR,OVC,0.00,0.0,WeatherDisplay:10.37,2013-04-04 21:27:00,
2013-04-04 16:32:00,48.2,32.8,29.99,North,350,5.8,5.8,55,0.00,CLR,OVC,0.00,0.0,WeatherDisplay:10.37,2013-04-04 21:32:00,
2013-04-04 16:37:00,47.8,32.9,29.99,NNW,327,4.6,4.6,56,0.00,CLR,OVC,0.00,0.0,WeatherDisplay:10.37,2013-04-04 21:37:00,
2013-04-04 16:42:00,47.8,32.4,29.99,NW,320,5.8,5.8,55,0.00,CLR,OVC,0.00,0.0,WeatherDisplay:10.37,2013-04-04 21:42:00,
2013-04-04 16:47:00,47.8,32.4,29.99,WNW,288,5.8,5.8,55,0.00,CLR,OVC,0.00,0.0,WeatherDisplay:10.37,2013-04-04 21:47:00,
2013-04-04 16:52:00,47.7,32.3,29.99,NW,320,3.5,4.0,55,0.00,CLR,OVC,0.00,0.0,WeatherDisplay:10.37,2013-04-04 21:52:00,
2013-04-04 16:57:00,47.8,32.4,29.99,WNW,296,5.8,5.8,55,0.00,CLR,OVC,0.00,0.0,WeatherDisplay:10.37,2013-04-04 21:57:00,
2013-04-04 17:02:00,47.7,32.7,29.99,NW,315,4.6,5.4,56,0.00,CLR,OVC,0.00,0.0,WeatherDisplay:10.37,2013-04-04 22:02:00,
2013-04-04 17:07:00,47.7,32.7,29.99,WNW,284,5.8,5.8,56,0.00,CLR,OVC,0.00,0.0,WeatherDisplay:10.37,2013-04-04 22:07:00,
2013-04-04 17:12:00,47.5,32.6,29.99,NW,314,5.8,5.8,56,0.00,CLR,OVC,0.00,0.0,WeatherDisplay:10.37,2013-04-04 22:12:00,
2013-04-04 17:17:00,47.7,32.7,29.99,NW,325,3.5,3.5,56,0.00,CLR,OVC,0.00,0.0,WeatherDisplay:10.37,2013-04-04 22:17:00,
2013-04-04 17:22:00,47.8,32.4,29.99,WNW,303,3.5,4.0,55,0.00,CLR,OVC,0.00,0.0,WeatherDisplay:10.37,2013-04-04 22:22:00,
2013-04-04 17:27:00,47.7,32.7,29.99,West,267,3.5,3.5,56,0.00,CLR,OVC,0.00,0.0,WeatherDisplay:10.37,2013-04-04 22:27:00,
2013-04-04 17:32:00,47.7,32.7,29.99,NW,313,3.5,0.0,56,0.00,CLR,OVC,0.00,0.0,WeatherDisplay:10.37,2013-04-04 22:32:00,
2013-04-04 17:37:00,48.0,32.6,29.99,NW,312,3.5,3.5,55,0.00,CLR,OVC,0.00,0.0,WeatherDisplay:10.37,2013-04-04 22:37:00,
2013-04-04 17:42:00,48.0,32.6,29.99,West,276,3.5,3.5,55,0.00,CLR,OVC,0.00,0.0,WeatherDisplay:10.37,2013-04-04 22:42:00,
2013-04-04 17:47:00,48.0,32.6,29.99,NW,320,5.8,5.8,55,0.00,CLR,OVC,0.00,0.0,WeatherDisplay:10.37,2013-04-04 22:47:00,
2013-04-04 17:52:00,47.8,32.4,29.99,West,277,3.5,4.0,55,0.00,CLR,OVC,0.00,0.0,WeatherDisplay:10.37,2013-04-04 22:52:00,
2013-04-04 17:57:00,47.7,32.3,29.99,NNW,332,5.8,5.8,55,0.00,CLR,OVC,0.00,0.0,WeatherDisplay:10.37,2013-04-04 22:57:00,
2013-04-04 18:02:00,47.8,32.4,29.99,NW,310,4.6,4.6,55,0.00,CLR,OVC,0.00,0.0,WeatherDisplay:10.37,2013-04-04 23:02:00,
2013-04-04 18:07:00,47.7,32.3,29.99,NNW,340,3.5,3.5,55,0.00,CLR,OVC,0.00,0.0,WeatherDisplay:10.37,2013-04-04 23:07:00,
2013-04-04 18:12:00,47.5,31.6,29.99,NW,318,4.6,4.9,54,0.00,CLR,OVC,0.00,0.0,WeatherDisplay:10.37,2013-04-04 23:12:00,
2013-04-04 18:17:00,47.5,31.6,29.99,NNW,339,3.5,4.0,54,0.00,CLR,OVC,0.00,0.0,WeatherDisplay:10.37,2013-04-04 23:17:00,
2013-04-04 18:22:00,47.3,31.5,29.99,WNW,299,3.5,3.6,54,0.00,CLR,OVC,0.00,0.0,WeatherDisplay:10.37,2013-04-04 23:22:00,
2013-04-04 18:27:00,47.1,31.3,29.99,WNW,283,3.5,3.5,54,0.00,CLR,OVC,0.00,0.0,WeatherDisplay:10.37,2013-04-04 23:27:00,
2013-04-04 18:32:00,46.9,31.1,29.99,WNW,288,3.5,3.5,54,0.00,CLR,OVC,0.00,0.0,WeatherDisplay:10.37,2013-04-04 23:32:00,
2013-04-04 18:37:00,46.6,30.8,29.99,WNW,293,3.5,3.5,54,0.00,CLR,OVC,0.00,0.0,WeatherDisplay:10.37,2013-04-04 23:37:00,
2013-04-04 18:42:00,46.4,30.6,29.99,WSW,244,3.5,3.5,54,0.00,CLR,OVC,0.00,0.0,WeatherDisplay:10.37,2013-04-04 23:42:00,
2013-04-04 18:47:00,46.2,30.5,29.99,NW,307,3.5,3.5,54,0.00,CLR,OVC,0.00,0.0,WeatherDisplay:10.37,2013-04-04 23:47:00,
2013-04-04 18:52:00,46.0,30.8,29.99,West,278,3.5,3.5,55,0.00,CLR,OVC,0.00,0.0,WeatherDisplay:10.37,2013-04-04 23:52:00,
2013-04-04 18:57:00,45.9,30.1,29.99,NW,326,3.5,3.6,54,0.00,CLR,OVC,0.00,0.0,WeatherDisplay:10.37,2013-04-04 23:57:00,
2013-04-04 19:02:00,45.3,29.6,29.99,WNW,291,3.5,3.6,54,0.00,CLR,OVC,0.00,0.0,WeatherDisplay:10.37,2013-04-05 00:02:00,
2013-04-04 19:07:00,45.1,29.5,29.99,WNW,289,3.5,3.5,54,0.00,CLR,OVC,0.00,0.0,WeatherDisplay:10.37,2013-04-05 00:07:00,
2013-04-04 19:12:00,44.6,29.0,29.99,WNW,286,3.5,3.5,54,0.00,CLR,OVC,0.00,0.0,WeatherDisplay:10.37,2013-04-05 00:12:00,
2013-04-04 19:17:00,44.2,29.1,29.99,WNW,282,3.5,3.5,55,0.00,CLR,OVC,0.00,0.0,WeatherDisplay:10.37,2013-04-05 00:17:00,
2013-04-04 19:22:00,43.9,28.7,29.99,WNW,303,3.5,3.5,55,0.00,CLR,OVC,0.00,0.0,WeatherDisplay:10.37,2013-04-05 00:22:00,
2013-04-04 19:27:00,43.5,28.4,30.02,WNW,298,2.3,0.0,55,0.00,CLR,OVC,0.00,0.0,WeatherDisplay:10.37,2013-04-05 00:27:00,
2013-04-04 19:32:00,43.2,28.1,30.02,NW,313,3.5,3.5,55,0.00,CLR,OVC,0.00,0.0,WeatherDisplay:10.37,2013-04-05 00:32:00,
2013-04-04 19:38:00,42.8,28.2,30.02,NW,323,3.5,3.5,56,0.00,CLR,OVC,0.00,0.0,WeatherDisplay:10.37,2013-04-05 00:38:00,
2013-04-04 19:43:00,42.6,28.0,30.02,NW,322,3.5,3.5,56,0.00,CLR,OVC,0.00,0.0,WeatherDisplay:10.37,2013-04-05 00:43:00,
2013-04-04 19:48:00,42.3,27.7,30.02,NW,322,2.3,0.0,56,0.00,CLR,OVC,0.00,0.0,WeatherDisplay:10.37,2013-04-05 00:48:00,
2013-04-04 19:53:00,42.3,28.1,30.02,WNW,293,0.0,0.0,57,0.00,CLR,OVC,0.00,0.0,WeatherDisplay:10.37,2013-04-05 00:53:00,
2013-04-04 19:58:00,42.1,27.9,30.02,WNW,293,0.0,0.0,57,0.00,CLR,OVC,0.00,0.0,WeatherDisplay:10.37,2013-04-05 00:58:00,
2013-04-04 20:03:00,41.7,27.6,30.02,WSW,252,3.5,3.5,57,0.00,CLR,OVC,0.00,0.0,WeatherDisplay:10.37,2013-04-05 01:03:00,
2013-04-04 20:08:00,41.7,27.6,30.02,WSW,252,0.0,0.0,57,0.00,CLR,OVC,0.00,0.0,WeatherDisplay:10.37,2013-04-05 01:08:00,
2013-04-04 20:13:00,41.4,27.3,30.02,WSW,252,0.0,0.0,57,0.00,CLR,OVC,0.00,0.0,WeatherDisplay:10.37,2013-04-05 01:13:00,
2013-04-04 20:18:00,41.0,26.9,30.02,WSW,252,0.0,0.0,57,0.00,CLR,OVC,0.00,0.0,WeatherDisplay:10.37,2013-04-05 01:18:00,
2013-04-04 20:23:00,40.8,27.2,30.02,WSW,252,0.0,0.0,58,0.00,CLR,OVC,0.00,0.0,WeatherDisplay:10.37,2013-04-05 01:23:00,
2013-04-04 20:28:00,40.6,27.0,30.02,WSW,252,0.0,0.0,58,0.00,CLR,OVC,0.00,0.0,WeatherDisplay:10.37,2013-04-05 01:28:00,
2013-04-04 20:33:00,40.5,27.2,30.02,WSW,252,0.0,0.0,59,0.00,CLR,OVC,0.00,0.0,WeatherDisplay:10.37,2013-04-05 01:33:00,
2013-04-04 20:38:00,40.3,27.1,30.02,West,273,2.3,2.3,59,0.00,CLR,OVC,0.00,0.0,WeatherDisplay:10.37,2013-04-05 01:38:00,
2013-04-04 20:43:00,40.3,27.1,30.02,NNW,327,2.3,0.0,59,0.00,CLR,OVC,0.00,0.0,WeatherDisplay:10.37,2013-04-05 01:43:00,
2013-04-04 20:48:00,40.3,27.1,30.02,NNW,327,2.3,0.0,59,0.00,CLR,OVC,0.00,0.0,WeatherDisplay:10.37,2013-04-05 01:48:00,
2013-04-04 20:54:00,40.3,27.1,30.02,NW,326,3.5,3.5,59,0.00,CLR,OVC,0.00,0.0,WeatherDisplay:10.37,2013-04-05 01:54:00,
2013-04-04 20:59:00,40.1,26.9,30.05,NW,326,3.5,3.5,59,0.00,CLR,OVC,0.00,0.0,WeatherDisplay:10.37,2013-04-05 01:59:00,
2013-04-04 21:04:00,39.9,26.7,30.05,NW,326,2.3,2.3,59,0.00,CLR,OVC,0.00,0.0,WeatherDisplay:10.37,2013-04-05 02:04:00,
2013-04-04 21:09:00,39.9,26.7,30.05,NW,326,2.3,2.3,59,0.00,CLR,OVC,0.00,0.0,WeatherDisplay:10.37,2013-04-05 02:09:00,
2013-04-04 21:14:00,39.9,27.1,30.05,NW,326,2.3,0.0,60,0.00,CLR,OVC,0.00,0.0,WeatherDisplay:10.37,2013-04-05 02:14:00,
2013-04-04 21:19:00,39.7,27.0,30.05,NW,326,0.0,0.0,60,0.00,CLR,OVC,0.00,0.0,WeatherDisplay:10.37,2013-04-05 02:19:00,
2013-04-04 21:24:00,39.6,26.8,30.05,NW,326,0.0,0.0,60,0.00,CLR,OVC,0.00,0.0,WeatherDisplay:10.37,2013-04-05 02:24:00,
2013-04-04 21:29:00,39.4,26.6,30.05,NW,326,0.0,0.0,60,0.00,CLR,OVC,0.00,0.0,WeatherDisplay:10.37,2013-04-05 02:29:00,
2013-04-04 21:34:00,39.2,26.5,30.05,NW,326,3.5,0.0,60,0.00,CLR,OVC,0.00,0.0,WeatherDisplay:10.37,2013-04-05 02:34:00,
2013-04-04 21:39:00,39.4,26.6,30.05,NNW,327,2.7,2.7,60,0.00,CLR,OVC,0.00,0.0,WeatherDisplay:10.37,2013-04-05 02:39:00,
2013-04-04 21:45:00,39.4,26.6,30.05,NNW,327,2.3,0.0,60,0.00,CLR,OVC,0.00,0.0,WeatherDisplay:10.37,2013-04-05 02:45:00,
2013-04-04 21:50:00,39.2,26.5,30.05,NNW,327,0.0,0.0,60,0.00,CLR,OVC,0.00,0.0,WeatherDisplay:10.37,2013-04-05 02:50:00,
2013-04-04 21:55:00,39.0,26.7,30.08,NNW,327,2.3,0.0,61,0.00,CLR,OVC,0.00,0.0,WeatherDisplay:10.37,2013-04-05 02:55:00,
2013-04-04 22:00:00,38.8,26.5,30.08,NNW,327,2.3,0.0,61,0.00,CLR,OVC,0.00,0.0,WeatherDisplay:10.37,2013-04-05 03:00:00,
2013-04-04 22:05:00,38.5,26.6,30.08,NNW,327,2.3,0.0,62,0.00,CLR,OVC,0.00,0.0,WeatherDisplay:10.37,2013-04-05 03:05:00,
2013-04-04 22:10:00,38.1,26.6,30.08,NNW,327,2.3,0.0,63,0.00,CLR,OVC,0.00,0.0,WeatherDisplay:10.37,2013-04-05 03:10:00,
2013-04-04 22:15:00,37.9,26.5,30.08,NNW,327,2.3,2.3,63,0.00,CLR,OVC,0.00,0.0,WeatherDisplay:10.37,2013-04-05 03:15:00,
2013-04-04 22:20:00,37.9,26.5,30.08,NNW,327,3.5,0.0,63,0.00,CLR,OVC,0.00,0.0,WeatherDisplay:10.37,2013-04-05 03:20:00,
2013-04-04 22:25:00,37.6,26.1,30.08,NNW,327,2.3,0.0,63,0.00,CLR,OVC,0.00,0.0,WeatherDisplay:10.37,2013-04-05 03:25:00,
2013-04-04 22:30:00,37.4,25.9,30.08,NNW,327,0.0,0.0,63,0.00,CLR,OVC,0.00,0.0,WeatherDisplay:10.37,2013-04-05 03:30:00,
2013-04-04 22:35:00,37.2,25.8,30.08,NNW,330,3.5,3.5,63,0.00,CLR,OVC,0.00,0.0,WeatherDisplay:10.37,2013-04-05 03:35:00,
2013-04-04 22:40:00,37.0,26.0,30.08,NNE,27,2.3,2.3,64,0.00,CLR,OVC,0.00,0.0,WeatherDisplay:10.37,2013-04-05 03:40:00,
2013-04-04 22:45:00,36.9,25.8,30.08,NNE,27,2.3,0.0,64,0.00,CLR,OVC,0.00,0.0,WeatherDisplay:10.37,2013-04-05 03:45:00,
2013-04-04 22:50:00,36.7,25.6,30.08,NNE,18,3.5,3.5,64,0.00,CLR,OVC,0.00,0.0,WeatherDisplay:10.37,2013-04-05 03:50:00,
2013-04-04 22:56:00,36.5,25.5,30.08,NNE,18,3.5,3.5,64,0.00,CLR,OVC,0.00,0.0,WeatherDisplay:10.37,2013-04-05 03:56:00,
2013-04-04 23:00:00,36.3,24.9,30.08,NNE,15,5.8,5.8,63,0.00,CLR,OVC,0.00,0.0,WeatherDisplay:10.37,2013-04-05 04:00:00,
2013-04-04 23:05:00,36.7,24.9,30.08,NNE,18,3.5,3.5,62,0.00,CLR,OVC,0.00,0.0,WeatherDisplay:10.37,2013-04-05 04:05:00,
2013-04-04 23:10:00,36.7,24.5,30.08,North,9,3.5,3.5,61,0.00,CLR,OVC,0.00,0.0,WeatherDisplay:10.37,2013-04-05 04:10:00,
2013-04-04 23:15:00,36.7,24.1,30.08,NE,44,3.5,0.0,60,0.00,CLR,OVC,0.00,0.0,WeatherDisplay:10.37,2013-04-05 04:15:00,
2013-04-04 23:20:00,36.7,24.1,30.08,North,10,3.5,3.5,60,0.00,CLR,OVC,0.00,0.0,WeatherDisplay:10.37,2013-04-05 04:20:00,
2013-04-04 23:25:00,36.5,23.9,30.08,North,10,3.5,3.5,60,0.00,CLR,OVC,0.00,0.0,WeatherDisplay:10.37,2013-04-05 04:25:00,
2013-04-04 23:30:00,36.3,23.3,30.08,North,10,3.5,3.5,59,0.00,CLR,OVC,0.00,0.0,WeatherDisplay:10.37,2013-04-05 04:30:00,
2013-04-04 23:35:00,36.3,23.3,30.08,North,353,5.8,5.8,59,0.00,CLR,OVC,0.00,0.0,WeatherDisplay:10.37,2013-04-05 04:35:00,
2013-04-04 23:40:00,36.3,22.9,30.08,NNE,18,4.6,4.6,58,0.00,CLR,OVC,0.00,0.0,WeatherDisplay:10.37,2013-04-05 04:40:00,
2013-04-04 23:45:00,36.3,22.9,30.11,NE,43,8.1,8.1,58,0.00,CLR,OVC,0.00,0.0,WeatherDisplay:10.37,2013-04-05 04:45:00,
2013-04-04 23:50:00,36.3,22.9,30.11,NE,45,6.9,6.9,58,0.00,CLR,OVC,0.00,0.0,WeatherDisplay:10.37,2013-04-05 04:50:00,
2013-04-04 23:55:00,36.3,22.5,30.11,NE,50,5.8,5.8,57,0.00,CLR,OVC,0.00,0.0,WeatherDisplay:10.37,2013-04-05 04:55:00,